SL-16 DEB, 22551

Orbit data source: Space-Track

SL-16 DEB, 22551 is space debris in LEO originally from a launch on Fri, 25 Dec 1992 UTC launched from the Tyuratam Missile And Space Complex (TTMTR). Debris objects in space refer to the collection of defunct objects orbiting the Earth. Examples of debris include non-operational satellites, rocket bodies, and fragments generated from explosions, collisions, or faulty payload assembly.

Loading next visibility...
Identifier
22551, 1992-093HM
Orbit
LEO
Country
Flag of CISCIS
Related business
Manufacturer
Unknown
Mission
Spacecraft
Bus & Motor
Unknown
Mass
Unknown
Launch date (UTC)
1992-12-25 (33 years ago)
Launch vehicle
Unknown
Launch site
Tyuratam Missile And Space Complex (TTMTR)
Object type
Payload
Rocket body
Debris
Shape & HBR
Unknown shape, 0.1 m
Radar Cross Section
Small (<0.1 m²)

Expand to show TLE details & history
Last TLE update: 1 day ago

TLE from 1 day ago
0 SL-16 DEB
1 22551U 92093HM  25349.60459777  .00000152  00000-0  13695-3 0  9991
2 22551  70.8650  62.0912 0096936 265.3376  93.6660 13.97071772677866
Epoch: 2025-12-15T14:30Z
TLE epoch observation values (Epoch: 2025-12-15T14:30:37.247Z)
Latitude
-0.00001°
Longitude
119.93523°
Altitude
911.519 km
Speed
7.394 km/s
True Right ascension
04h 08m 21s
True Declination
0° 00' 00"
Sunlit
Object was in full shadow at epoch
Visualization orbit readout
Latitude
Unknown
Longitude
Unknown
Altitude
Unknown
Speed
Unknown
Apparent Right ascension
Unknown
Apparent Declination
Unknown
Sunlit
N/A
Visualization observer readout
Local Sidereal Time
18:31:19
Azimuth
Unknown
Elevation
Unknown
Doppler factor
Unknown
Orbital elements
Apogee altitude
972.478 km
Perigee altitude
831.338 km
Semi-major axis
7,280.045 km
Eccentricity
0.00969
Inclination
70.865°
RAAN
62.0912°
Arg. of periapsis
265.3376°
True anomaly
94.7736°
Mean anomaly
93.666°
Eccentric anomaly
94.2199°
Mean motion
3.49415 °/min
Orbital period
103.03 mins
BSTAR
0.00013695
Loading maneuver chart data...
Computing Atmospheric mass density...
Loading historical data...
Loading historical data...
Loading historical data...
Loading historical data...
Loading historical data...
Loading historical data...
Loading historical data...

Documentation

Showing up to 5 results
|